Montpelier, VT

7:30 AM EST on December 11, 2016 (GMT -0500)
Knapp State

Weather History for KMPV - September, 2013

Change the Weather History Date:

Friday, September 6, 2013

  Actual Average Record
Temperature  
Mean Temperature 51 °F 61 °F  
Max Temperature 65 °F 73 °F 85 °F (1948)
Min Temperature 36 °F 50 °F 34 °F (1984)
Degree Days  
Heating Degree Days 14 5  
Month to date heating degree days 31 27  
Since 1 July heating degree days 124 135  
Cooling Degree Days 0 1  
Month to date cooling degree days 13 6  
Year to date cooling degree days 307 250  
Moisture  
Dew Point 39 °F    
Average Humidity 67    
Maximum Humidity 100    
Minimum Humidity 34    
Precipitation  
Precipitation 0.00 in 0.08 in 0.93 in (1979)
Month to date precipitation 0.60 0.54  
Year to date precipitation 25.89 25.34  
Sea Level Pressure  
Sea Level Pressure 30.23 in    
Wind  
Wind Speed 3 mph (WSW)    
Max Wind Speed 12 mph    
Max Gust Speed 16 mph    
Visibility 6 miles    
Events Fog    
T = Trace of Precipitation, MM = Missing Value Source: NWS Daily Summary

Daily Weather History Graph

Daily Weather History Graph

Search for Another Location

Airport or City:

Trip Planner

Search our weather history database for the weather conditions in past years. The results will help you decide how hot, cold, wet, or windy it might be!

Date:

Astronomy

Sep. 06, 2013 Rise Set
Actual Time 6:19 AM EDT 7:16 PM EDT
Civil Twilight 5:49 AM EDT 7:46 PM EDT
Nautical Twilight 5:14 AM EDT 8:21 PM EDT
Astronomical Twilight 4:37 AM EDT 8:58 PM EDT
Moon 7:33 AM EDT (9/6) 7:34 PM EDT (9/6)
Length of Visible Light 13h 56m
Length of Day
12h 57m
New Moon, 1% of the Moon is Illuminated
Sep 6
New Moon
Sep 12
First Quarter
Sep 19
Full
Sep 26
Last Quarter
Oct 4
New

Hourly Weather History & Observations

Time (EDT) Temp. Dew Point Humidity Pressure Visibility Wind Dir Wind Speed Gust Speed Precip Events Conditions
12:51 AM 39.9 °F 39.0 °F 97% 30.23 in 10.0 mi Calm Calm - N/A   Clear
1:51 AM 39.0 °F 37.9 °F 96% 30.23 in 10.0 mi Calm Calm - N/A   Clear
2:12 AM 39.2 °F 39.2 °F 100% 30.22 in 3.0 mi Calm Calm - N/A   Partly Cloudy
2:51 AM 39.0 °F 37.0 °F 93% 30.25 in 10.0 mi Calm Calm - N/A   Clear
3:51 AM 37.9 °F 36.0 °F 93% 30.25 in 10.0 mi Calm Calm - N/A   Clear
4:05 AM 37.4 °F 35.6 °F 93% 30.23 in 1.5 mi Calm Calm - N/A   Partly Cloudy
4:07 AM 37.4 °F 35.6 °F 93% 30.23 in 0.8 mi Calm Calm - N/A   Mist
4:18 AM 37.4 °F 35.6 °F 93% 30.23 in 1.2 mi Calm Calm - N/A   Scattered Clouds
4:28 AM 37.4 °F 35.6 °F 93% 30.24 in 1.5 mi Calm Calm - N/A   Mostly Cloudy
4:40 AM 35.6 °F 35.6 °F 100% 30.24 in 1.0 mi Calm Calm - N/A   Mist
4:47 AM 37.4 °F 35.6 °F 93% 30.24 in 0.2 mi Calm Calm - N/A Fog Fog
4:51 AM 37.0 °F 37.0 °F 100% 30.26 in 0.2 mi Calm Calm - N/A Fog Fog
5:51 AM 37.0 °F 37.0 °F 100% 30.28 in 0.2 mi Calm Calm - N/A Fog Fog
6:51 AM 37.0 °F 37.0 °F 100% 30.30 in 0.2 mi Calm Calm - N/A Fog Fog
7:51 AM 37.9 °F 37.9 °F 100% 30.31 in 0.2 mi Calm Calm - N/A Fog Fog
8:03 AM 39.2 °F 39.2 °F 100% 30.28 in 1.2 mi Calm Calm - N/A   Overcast
8:06 AM 39.2 °F 39.2 °F 100% 30.28 in 2.0 mi Calm Calm - N/A   Mostly Cloudy
8:09 AM 39.2 °F 39.2 °F 100% 30.28 in 0.8 mi Calm Calm - N/A   Mist
8:51 AM 43.0 °F 43.0 °F 100% 30.32 in 1.2 mi Calm Calm - N/A   Overcast
8:55 AM 42.8 °F 42.8 °F 100% 30.29 in 2.0 mi Calm Calm - N/A   Overcast
9:03 AM 44.6 °F 42.8 °F 93% 30.29 in 8.0 mi Calm Calm - N/A   Mostly Cloudy
9:14 AM 44.6 °F 44.6 °F 100% 30.29 in 10.0 mi Calm Calm - N/A   Scattered Clouds
9:51 AM 50.0 °F 43.0 °F 77% 30.31 in 10.0 mi Calm Calm - N/A   Clear
10:51 AM 55.9 °F 37.0 °F 49% 30.29 in 10.0 mi Calm Calm - N/A   Clear
11:51 AM 57.9 °F 35.1 °F 42% 30.27 in 10.0 mi WNW 8.1 mph - N/A   Clear
12:51 PM 60.1 °F 36.0 °F 41% 30.25 in 10.0 mi NNW 5.8 mph - N/A   Clear
1:51 PM 62.1 °F 37.0 °F 39% 30.24 in 10.0 mi Variable 4.6 mph - N/A   Clear
2:51 PM 64.0 °F 36.0 °F 35% 30.21 in 10.0 mi WNW 6.9 mph - N/A   Clear
3:51 PM 64.0 °F 35.1 °F 34% 30.19 in 10.0 mi NNW 9.2 mph - N/A   Clear
4:51 PM 64.0 °F 36.0 °F 35% 30.18 in 10.0 mi Variable 4.6 mph - N/A   Clear
5:51 PM 63.0 °F 39.0 °F 41% 30.16 in 10.0 mi SW 5.8 mph - N/A   Clear
6:51 PM 60.1 °F 43.0 °F 53% 30.15 in 10.0 mi SSW 3.5 mph - N/A   Clear
7:51 PM 55.9 °F 43.0 °F 62% 30.15 in 10.0 mi SSW 4.6 mph - N/A   Clear
8:51 PM 54.0 °F 43.0 °F 66% 30.14 in 10.0 mi SW 5.8 mph - N/A   Clear
9:51 PM 52.0 °F 44.1 °F 74% 30.13 in 10.0 mi Calm Calm - N/A   Clear
10:51 PM 48.9 °F 44.1 °F 83% 30.13 in 10.0 mi South 3.5 mph - N/A   Clear
11:51 PM 48.0 °F 46.0 °F 93% 30.11 in 10.0 mi Calm Calm - N/A   Mostly Cloudy